GW5149 Weather Reports


time (UTC)temp
F
wind
direction
speed
knots
gust
knots
rain 1hr
in
rain 24hr
in
rain mn
in
humidity
%
barometer
mb
20260506031104 43 90 0.0 1.7 0.00 0.02 0.00 78 1014.0
20260506025100 43 45 0.0 1.7 0.00 0.02 0.00 77 1014.2
20260506024057 43 0.0 1.7 0.00 0.02 0.00 77 1014.3
20260506023056 43 0.0 0.0 0.00 0.02 0.00 77 1014.1
20260506022051 43 0.0 0.0 0.00 0.02 0.00 78 1014.1
20260506021050 43 23 0.0 1.7 0.00 0.02 0.00 77 1014.1
20260506020107 43 23 0.0 1.7 0.00 0.02 0.00 77 1014.1
20260506015044 44 352 0.0 3.5 0.00 0.02 0.00 76 1014.0
20260506014041 44 81 0.9 3.5 0.00 0.02 0.00 76 1014.1
20260506013058 44 8 0.0 3.5 0.00 0.02 0.00 76 1014.1
20260506012036 44 46 0.9 3.5 0.00 0.02 0.00 76 1014.1
20260506011033 44 65 0.9 5.2 0.00 0.02 0.00 76 1014.1
20260506010030 44 38 0.9 3.5 0.00 0.02 0.00 78 1014.2
20260506005028 44 293 0.0 1.7 0.00 0.02 0.00 78 1014.3
20260506004025 44 0 0.0 1.7 0.00 0.02 0.00 78 1014.3
20260506003022 45 68 0.0 3.5 0.00 0.02 0.00 78 1014.3
20260506002020 45 342 0.9 3.5 0.00 0.02 0.00 78 1014.3
20260506001037 45 293 0.0 1.7 0.00 0.02 0.00 78 1014.3
20260506000115 45 11 0.0 3.5 0.00 0.02 0.00 78 1014.4
20260505235117 45 341 0.9 3.5 0.00 0.02 0.00 78 1014.3
20260505234110 45 327 0.0 3.5 0.00 0.02 0.00 78 1014.2
20260505233109 45 322 0.0 3.5 0.00 0.02 0.00 78 1014.3
20260505232105 45 0.0 1.7 0.00 0.02 0.00 78 1014.3
20260505231102 45 315 0.0 1.7 0.00 0.02 0.00 78 1014.3
20260505230059 46 0.0 1.7 0.00 0.02 0.00 78 1014.4
20260505225058 46 23 0.0 1.7 0.00 0.02 0.02 77 1014.3
20260505224054 46 68 0.0 1.7 0.00 0.02 0.02 78 1014.3
20260505223111 46 55 0.0 1.7 0.00 0.02 0.02 78 1014.4
20260505222049 46 23 0.0 1.7 0.00 0.02 0.02 78 1014.3
20260505221234 46 0.0 1.7 0.00 0.02 0.02 78 1014.2
20260505220044 46 338 0.0 1.7 0.00 0.02 0.02 78 1014.2
20260505215046 46 56 0.0 3.5 0.00 0.02 0.02 79 1014.2
20260505214039 46 45 0.0 3.5 0.00 0.02 0.02 79 1014.1
20260505213036 46 0.0 1.7 0.00 0.02 0.02 79 1014.2
20260505212034 46 83 0.0 3.5 0.00 0.02 0.02 79 1014.1
20260505211032 46 317 0.9 3.5 0.00 0.02 0.02 79 1014.0
20260505210047 46 11 0.9 3.5 0.00 0.02 0.02 79 1014.1
20260505205045 46 42 0.9 5.2 0.00 0.02 0.02 79 1014.0
20260505204026 46 115 0.0 1.7 0.00 0.02 0.02 80 1014.0
20260505203020 46 52 0.0 3.5 0.00 0.02 0.02 80 1014.1
20260505202017 46 41 0.9 3.5 0.00 0.02 0.02 79 1014.0
20260505201134 47 43 0.0 3.5 0.00 0.02 0.02 80 1014.0
20260505200112 47 62 0.0 3.5 0.00 0.02 0.02 80 1014.0
20260505195109 47 45 0.9 3.5 0.01 0.02 0.02 81 1013.8
20260505194106 47 36 0.0 3.5 0.01 0.02 0.02 82 1013.8
20260505193104 47 10 0.9 3.5 0.02 0.02 0.02 82 1013.6
20260505192101 47 99 0.9 5.2 0.02 0.02 0.02 83 1013.5
20260505191118 47 348 1.7 5.2 0.02 0.02 0.02 83 1013.4
20260505190056 47 75 0.9 5.2 0.02 0.02 0.02 84 1013.4
20260505185053 47 23 1.7 3.5 0.01 0.01 0.01 84 1013.3
20260505184051 48 329 1.7 5.2 0.01 0.01 0.01 82 1013.2
20260505183048 49 11 0.9 5.2 0.00 0.00 0.00 81 1013.2
20260505182045 49 45 0.9 3.5 0.00 0.00 0.00 80 1013.2
20260505181043 50 326 2.6 7.8 0.00 0.00 0.00 78 1013.2
20260505180041 51 21 1.7 7.0 0.00 0.00 0.00 76 1013.2
20260505175038 53 29 0.9 1.7 0.00 0.00 0.00 73 1012.9
20260505174036 53 338 0.0 1.7 0.00 0.00 0.00 71 1013.1
20260505173032 53 338 0.0 3.5 0.00 0.00 0.00 71 1013.2
20260505172030 53 0.0 1.7 0.00 0.00 0.00 71 1013.0
20260505171047 53 53 0.9 3.5 0.00 0.00 0.00 69 1012.8
20260505170025 53 324 0.9 3.5 0.00 0.00 0.00 71 1013.0
20260505165023 53 1 1.7 6.1 0.00 0.00 0.00 71 1012.9
20260505164021 53 356 2.6 6.1 0.00 0.00 0.00 70 1013.1
20260505163017 53 352 2.6 7.0 0.00 0.00 0.00 69 1012.9
20260505162114 53 341 1.7 3.5 0.00 0.00 0.00 70 1013.0
20260505161112 54 359 2.6 7.0 0.00 0.00 0.00 69 1012.9
20260505160109 54 2 2.6 7.8 0.00 0.00 0.00 66 1012.6
20260505153102 55 348 2.6 9.6 0.00 0.00 0.00 64 1013.1
20260505152059 55 351 3.5 9.6 0.00 0.00 0.00 64 1013.1
20260505151057 54 352 2.6 9.6 0.00 0.00 0.00 67 1012.8
20260505124018 53 324 2.6 6.1 0.00 0.00 0.00 69 1013.7
20260505123016 53 348 1.7 7.0 0.00 0.00 0.00 70 1013.6
20260505122115 53 350 2.6 6.1 0.00 0.00 0.00 69 1013.6
20260505121111 53 5 2.6 5.2 0.00 0.00 0.00 69 1013.4
20260505120109 53 7 0.9 3.5 0.00 0.00 0.00 69 1013.6
20260505115106 52 358 1.7 5.2 0.00 0.00 0.00 71 1013.7
20260505114103 52 351 1.7 3.5 0.00 0.00 0.00 73 1013.4
20260505113100 53 352 1.7 7.0 0.00 0.00 0.00 73 1013.0
20260505112058 55 10 3.5 7.0 0.00 0.00 0.00 73 1012.9
20260505111055 54 30 2.6 6.1 0.00 0.00 0.00 73 1011.1
20260505102102 52 340 1.7 5.2 0.00 0.00 0.00 77 1012.9
20260505101041 52 347 1.7 5.2 0.00 0.00 0.00 77 1013.1
20260505100037 52 356 1.7 7.0 0.00 0.00 0.00 76 1013.0
20260505095034 52 17 1.7 5.2 0.00 0.00 0.00 74 1013.2
20260505094032 52 5 1.7 5.2 0.00 0.00 0.00 74 1013.0
20260505093049 52 357 1.7 5.2 0.00 0.00 0.00 72 1013.0
20260505092027 51 353 1.7 5.2 0.00 0.00 0.00 73 1013.1
20260505091024 51 15 1.7 3.5 0.00 0.00 0.00 74 1013.1
20260505090043 51 343 0.9 5.2 0.00 0.00 0.00 78 1013.0
20260505085019 51 357 1.7 6.1 0.00 0.00 0.00 80 1013.0
20260505084016 51 11 1.7 5.2 0.00 0.00 0.00 81 1013.1
20260505083135 51 353 0.9 3.5 0.00 0.00 0.00 81 1013.0
20260505082133 51 2 1.7 5.2 0.00 0.00 0.00 81 1013.0
20260505081110 52 18 2.6 7.0 0.00 0.00 0.00 79 1013.0
20260505080107 51 348 1.7 6.1 0.00 0.00 0.00 80 1013.0
20260505075124 51 13 1.7 5.2 0.00 0.00 0.00 80 1013.1
20260505074122 50 351 0.9 3.5 0.00 0.00 0.00 80 1013.1
20260505073059 51 358 1.7 3.5 0.00 0.00 0.00 80 1013.0
20260505072056 50 0 0.9 5.2 0.00 0.00 0.00 81 1013.1
20260505071054 51 349 0.9 3.5 0.00 0.00 0.00 82 1013.0
20260505070051 51 353 1.7 5.2 0.00 0.00 0.00 82 1013.1
20260505065048 50 11 0.0 1.7 0.00 0.00 0.00 84 1013.1
20260505064046 50 356 0.9 3.5 0.00 0.00 0.00 84 1013.1
20260505063045 50 0 0.9 3.5 0.00 0.00 0.00 85 1013.0
20260505062041 49 0 0.9 3.5 0.00 0.00 0.00 85 1012.8
20260505061058 49 9 0.9 1.7 0.00 0.00 0.00 86 1012.9
20260505060036 49 0 0.0 1.7 0.00 0.00 0.00 87 1012.9
20260505055034 48 331 0.9 5.2 0.00 0.00 0.00 88 1012.8
20260505054030 46 0 0.0 1.7 0.00 0.00 0.00 88 1012.9
20260505053028 46 0.0 0.0 0.00 0.00 0.00 88 1012.8
20260505052027 45 0.0 0.0 0.00 0.00 0.00 88 1012.9
20260505051023 45 0.0 0.0 0.00 0.00 0.00 89 1012.8
20260505041129 44 0.0 0.0 0.00 0.00 0.00 90 1012.9
20260505040105 43 0.0 0.0 0.00 0.00 0.00 90 1012.8
20260505035103 43 0.0 0.0 0.00 0.00 0.00 90 1013.0
20260505034101 42 0.0 0.0 0.00 0.00 0.00 89 1013.0
20260505033117 42 0.0 0.0 0.00 0.00 0.00 89 1012.9
20260505032054 42 0.0 0.0 0.00 0.00 0.00 89 1013.0